Weather History for Frontone, Italy

Change the Weather History Date:

Sunday, July 28, 2013

  Actual Average Record
Temperature  
Mean Temperature 90 °F -  
Max Temperature 102 °F 79 °F 102 °F (2013)
Min Temperature 79 °F 63 °F 59 °F (1998)
Cooling Degree Days 26    
Growing Degree Days 40 (Base 50)    
Moisture  
Dew Point 53 °F    
Average Humidity 30    
Maximum Humidity 48    
Minimum Humidity 10    
Precipitation  
Precipitation 0.00 in 0.12 in - ()
Sea Level Pressure  
Sea Level Pressure 30.04 in    
Wind  
Wind Speed 5 mph ()    
Max Wind Speed 15 mph    
Max Gust Speed 29 mph    
Visibility 18.0 miles    
Events      
Averages and records for this station are not official NWS values.
T = Trace of Precipitation, MM = Missing Value Source: Averaged Metar Reports

Daily Weather History Graph

Daily Weather History Graph

Search for Another Location

Airport:

Trip Planner

Search our weather history database for the weather conditions in past years. The results will help you decide how hot, cold, wet, or windy it might be!

Date:

Astronomy

Jul. 28, 2013 Rise Set
Actual Time 5:54 AM CEST 8:36 PM CEST
Civil Twilight 5:21 AM CEST 9:09 PM CEST
Nautical Twilight 4:39 AM CEST 9:50 PM CEST
Astronomical Twilight 3:51 AM CEST 10:38 PM CEST
Moon 11:33 PM CEST (7/28) 12:33 PM CEST (7/28)
Length of Visible Light 15h 47m
Length of Day
14h 41m
Waning Gibbous, 63% of the Moon is Illuminated
Jul 28
Waning Gibbous
Jul 29
Last Quarter
Aug 6
New
Aug 14
First Quarter
Aug 21
Full

Hourly Weather History & Observations

Time (CEST) Temp. Heat Index Dew Point Humidity Pressure Visibility Wind Dir Wind Speed Gust Speed Precip Events Conditions
12:55 AM 82.4 °F 82.5 °F 59.0 °F 45% 30.01 in - NNW 2.3 mph - N/A   Clear
1:55 AM 80.6 °F 81.1 °F 59.0 °F 48% 30.01 in - NNW 3.5 mph - N/A   Clear
2:00 AM 81 °F - 59 °F 37%  in 16 mi NNW 3.5 mph - -  
2:55 AM 80.6 °F 80.8 °F 57.2 °F 45% 30.01 in - South 2.3 mph - N/A   Clear
3:55 AM 80.6 °F 81.1 °F 59.0 °F 48% 30.01 in - SW 3.5 mph - N/A   Clear
4:55 AM 80.6 °F 80.8 °F 57.2 °F 45% 30.01 in - SE 4.6 mph - N/A   Clear
5:00 AM 80 °F - 57 °F 35%  in 16 mi SE 4.6 mph - -  
5:55 AM 80.6 °F 80.8 °F 57.2 °F 45% 30.04 in - WNW 3.5 mph - N/A   Clear
6:55 AM 80.6 °F 80.5 °F 55.4 °F 42% 30.04 in - NNW 3.5 mph - N/A   Clear
7:55 AM 82.4 °F 82.0 °F 57.2 °F 42% 30.04 in - NNW 4.6 mph - N/A   Clear
8:00 AM 82 °F - 57 °F 31%  in 19 mi NNW 4.6 mph - -  
8:55 AM 84.2 °F 83.8 °F 59.0 °F 42% 30.04 in - SW 9.2 mph - N/A   Clear
9:55 AM 87.8 °F 87.1 °F 59.0 °F 38% 30.06 in - SW 4.6 mph - N/A   Clear
10:55 AM 91.4 °F 89.1 °F 53.6 °F 28% 30.06 in - WSW 4.6 mph - N/A   Clear
11:00 AM 92 °F - 54 °F 18%  in 25 mi WSW 4.6 mph - -  
11:55 AM 95.0 °F - 50.0 °F 22% 30.06 in - WSW 8.1 mph 20.7 mph N/A   Clear
12:55 PM 96.8 °F - 51.8 °F 22% 30.06 in - SSW 10.4 mph - N/A   Clear
1:55 PM 100.4 °F - 50.0 °F 18% 30.06 in - South 4.6 mph - N/A   Clear
2:00 PM 100 °F - 50 °F 11%  in 19 mi South 4.6 mph - -   Scattered Clouds
2:55 PM 100.4 °F - 44.6 °F 15% 30.06 in - SSE 6.9 mph 19.6 mph N/A   Clear
3:55 PM 100.4 °F - 48.2 °F 17% 30.06 in - South 8.1 mph - N/A   Clear
4:55 PM 96.8 °F - 46.4 °F 18% 30.04 in - South 12.7 mph 24.2 mph N/A   Clear
5:00 PM 97 °F - 47 °F 10%  in 19 mi South 12.7 mph - -  
5:55 PM 95.0 °F - 50.0 °F 22% 30.04 in - South 12.7 mph - N/A   Clear
6:55 PM 95.0 °F - 51.8 °F 23% 30.04 in - South 8.1 mph - N/A   Clear
7:55 PM 93.2 °F 90.8 °F 53.6 °F 26% 30.04 in - South 8.1 mph 19.6 mph N/A   Clear
8:00 PM 92 °F - 54 °F 18%  in 19 mi South 8.1 mph - -  
8:55 PM 87.8 °F 85.7 °F 53.6 °F 31% 30.04 in - NNE 3.5 mph - N/A   Clear
9:55 PM 86.0 °F - 51.8 °F 31% 30.04 in - South 15.0 mph 28.8 mph N/A   Clear
10:55 PM 84.2 °F - 48.2 °F 29% 30.06 in - NE 4.6 mph - N/A   Clear
11:55 PM 84.2 °F - 46.4 °F 27% 30.06 in - South 5.8 mph - N/A   Clear